Flag for U.S.A. Weather past 2 weeks in Daly City, California, U.S.A.

Now
62 °F

Passing clouds.


Feels Like: 62 °F
Forecast: 59 / 68 °F
Wind: 6 mph from West

Location: San Francisco International Airport

Current Time: Aug 27, 2014 at 8:14:41 AM

Latest Report: Aug 27, 2014 at 6:56 AM


Visibility: 10 mi

Pressure: 30.05 "Hg

Humidity: 90%

Dew point: 59 °F

Location of Daly CityLocation

Historic Weather in Daly City — Graph

°F

Daly City temperature yesterday

Maximum temperature yesterday: 73 °F (at 1:56 PM)
Minimum temperature yesterday: 60 °F (at 2:56 AM)
Average temperature yesterday: 66 °F

Past Weeks' High & Low Weather Summary

 TemperatureHumidityPressure
High77 °F (Aug 22, 1:56 PM)96% (Aug 17, 6:56 AM)30.05 "Hg (Aug 17, 6:56 AM)
Low57 °F (Aug 17, 5:56 AM)52% (Aug 12, 1:56 PM)29.80 "Hg (Aug 19, 6:56 PM)
Average65 °F77%29.93 "Hg
* Reported Aug 12 6:56 AM — Aug 27 6:56 AM, Daly City, Weather by CustomWeather, © 2014

Note: Actual official high and low records may vary slightly from our data, if they occured in-between our weather recording intervals... More about our weather records

Advertising

Daly City weather history for previous 24 hours

 ConditionsComfort  
Time TempWeatherWind HumidityBarometerVisibility
6:56 AM
Aug 27
62 °FPassing clouds.6 mph90%30.05 "Hg10 mi
5:56 AM62 °FPassing clouds.6 mph90%30.03 "Hg10 mi
4:56 AM62 °FPassing clouds.7 mph90%30.02 "Hg10 mi
3:56 AM62 °FPassing clouds.7 mph90%30.02 "Hg10 mi
2:56 AM62 °FClear.5 mph90%30.01 "Hg10 mi
1:56 AM63 °FClear.7 mph87%30.01 "Hg10 mi
12:56 AM63 °FClear.8 mph84%30.01 "Hg10 mi
11:56 PM
Aug 26
64 °FClear.8 mph81%30.00 "Hg10 mi
10:56 PM64 °FClear.10 mph81%30.01 "Hg10 mi
9:56 PM65 °FClear.9 mph76%29.99 "Hg10 mi
8:56 PM65 °FClear.13 mph76%29.98 "Hg10 mi
7:56 PM65 °FSunny.17 mph76%29.96 "Hg10 mi
6:56 PM68 °FSunny.20 mph68%29.95 "Hg10 mi
5:56 PM69 °FSunny.21 mph66%29.95 "Hg10 mi
4:56 PM71 °FSunny.21 mph61%29.95 "Hg10 mi
3:56 PM72 °FSunny.20 mph59%29.95 "Hg10 mi
2:56 PM72 °FSunny.20 mph57%29.96 "Hg10 mi
1:56 PM73 °FSunny.20 mph57%29.98 "Hg10 mi
12:56 PM71 °FSunny.17 mph61%30.00 "Hg10 mi
11:56 AM71 °FSunny.12 mph61%30.01 "Hg10 mi
10:56 AM69 °FPassing clouds.5 mph66%30.02 "Hg10 mi
9:56 AM66 °FPassing clouds.5 mph73%30.02 "Hg10 mi
8:56 AM63 °FBroken clouds.No wind81%30.01 "Hg10 mi
Weather by CustomWeather, © 2014

See weather overviewHow to use our weather pages